[[{"header":{"parameterUnit":"m.s-1","parameterCategory":2,"la1":30.2992,"la2":30.254,"lo1":-89.0895,"lo2":-89.0443,"dy":0.0025,"dx":0.0025,"nx":19,"ny":19,"refTime":"2026-03-24T03:00:00:Z","depth":"0","parameterNumber":2,"parameterNumberName":"U-component_of_CURRENTS"},"data":[0,0,0,0.3455,0.3459,0.3646,0.3647,0.3815,0.3816,0,0,0,0,0,0,0,0,0,0,0,0.3381,0.3382,0.3455,0.3459,0.3646,0.3647,0.3815,0.3816,0,0,0,0,0,0,0,0,0,0,0,0.338,0.3382,0.3383,0.346,0.3646,0.3647,0.3814,0.3693,0,0,0,0,0,0,0,0,0,0,0.3521,0.3462,0.3381,0.3383,0.3461,0.3645,0.3647,0.3688,0.37,0.3708,0,0.3732,0,0.3779,0.3825,0.3826,0,0,0,0.3466,0.3452,0.3501,0.3383,0.3463,0.3645,0.3564,0.3695,0.3709,0.3724,0.3735,0.3742,0.3781,0.3826,0.3827,0.3991,0.3992,0,0,0.3455,0.3419,0.3491,0.3509,0.3503,0.3557,0.3569,0.3705,0.3715,0.3735,0.3747,0.3784,0.3827,0.3828,0.399,0.3991,0,0,0,0.3421,0.3411,0.3459,0.3501,0.3542,0.3563,0.3576,0.3709,0.3724,0.3749,0.3786,0.3828,0.3829,0.399,0.3991,0.4072,0,0,0,0.3416,0.3392,0.3454,0.3435,0.3539,0.3639,0.3577,0.3715,0.3732,0.3785,0.3828,0.3831,0.3989,0.399,0.4068,0.4072,0,0,0,0.3374,0.3388,0.3406,0.3432,0.3512,0.3638,0.3662,0.372,0.3754,0.3826,0.3831,0.3988,0.399,0.4064,0.4067,0.4112,0,0,0,0.3334,0.3424,0.3405,0.3521,0.351,0.3666,0.3662,0.3772,0.3837,0.3828,0.3989,0.3991,0.4063,0.4064,0.4109,0.4028,0.4037,0,0,0.3441,0.3436,0.351,0.3499,0.3639,0.364,0.3796,0.3862,0.3865,0.3938,0.3943,0.4069,0.4066,0.4111,0.4136,0.4141,0,0,0,0.3542,0.3581,0.3625,0.3694,0.3772,0.3827,0.3901,0.3932,0.4014,0.3912,0.4085,0.408,0.4106,0.4051,0.4056,0.3806,0.3999,0.3999,0.3999,0.3616,0.3665,0.3765,0.3825,0.3893,0.3972,0.404,0.4087,0.4093,0.4135,0.4159,0.4261,0.4206,0.4208,0.3953,0.419,0.419,0.4191,0.4191,0.3749,0.3816,0.3826,0.3935,0.396,0.4053,0.4158,0.4184,0.4292,0.4254,0.4277,0.4155,0.4218,0.3943,0.4196,0.4195,0.4195,0.4194,0.4194,0.3785,0.3828,0.3863,0.3943,0.4002,0.4069,0.4169,0.4256,0.4328,0.4383,0.4306,0.4303,0.4047,0.4396,0.4396,0.4396,0.4397,0.4397,0.4397,0.3817,0.386,0.39,0.3949,0.3985,0.4043,0.4174,0.4269,0.435,0.4367,0.4366,0.4044,0.4322,0.4298,0.4401,0.44,0.44,0.4399,0.4399,0.395,0.3882,0.3938,0.3966,0.4012,0.395,0.4127,0.4202,0.433,0.4344,0.404,0.4363,0.432,0.4314,0.4289,0.4384,0.4384,0.4384,0.4384,0.3979,0.3967,0.3955,0.3958,0.3971,0.3919,0.385,0.3909,0.3932,0.3863,0.3893,0.3794,0.3806,0.3726,0.3733,0.3694,0.3635,0.3634,0.3633,0.4048,0.4009,0.3964,0.3889,0.3905,0.3797,0.3528,0.3373,0.3492,0.3578,0.3562,0.3594,0.3425,0.3463,0.3319,0.3349,0.3278,0,0]},{"header":{"parameterUnit":"m.s-1","parameterCategory":2,"la1":30.2992,"la2":30.254,"lo1":-89.0895,"lo2":-89.0443,"dy":0.0025,"dx":0.0025,"nx":19,"ny":19,"refTime":"2026-03-24T03:00:00:Z","depth":"0","parameterNumber":3,"parameterNumberName":"V-component_of_CURRENTS"},"data":[0,0,0,-0.0773,-0.0777,-0.1021,-0.1022,-0.1255,-0.1256,0,0,0,0,0,0,0,0,0,0,0,-0.0682,-0.0683,-0.0772,-0.0777,-0.1021,-0.1022,-0.1255,-0.1256,0,0,0,0,0,0,0,0,0,0,0,-0.0681,-0.0683,-0.0684,-0.0778,-0.102,-0.1022,-0.1254,-0.1097,0,0,0,0,0,0,0,0,0,0,-0.0873,-0.0792,-0.0682,-0.0684,-0.0779,-0.102,-0.1022,-0.1091,-0.1107,-0.1113,0,-0.1132,0,-0.1188,-0.1267,-0.1268,0,0,0,-0.0807,-0.0779,-0.0837,-0.0684,-0.0781,-0.1019,-0.0919,-0.11,-0.1118,-0.1133,-0.1136,-0.1146,-0.1192,-0.1268,-0.1269,-0.1208,-0.1206,0,0,-0.0793,-0.074,-0.0825,-0.0848,-0.0819,-0.0911,-0.0926,-0.1113,-0.1122,-0.1137,-0.1152,-0.1196,-0.127,-0.1271,-0.121,-0.1208,0,0,0,-0.0735,-0.073,-0.0787,-0.0837,-0.0882,-0.0917,-0.0935,-0.1115,-0.1131,-0.1155,-0.1198,-0.127,-0.1273,-0.1212,-0.1209,-0.1024,0,0,0,-0.0728,-0.0694,-0.078,-0.0753,-0.0878,-0.1012,-0.0932,-0.1118,-0.1142,-0.1197,-0.1271,-0.1274,-0.1214,-0.1211,-0.1034,-0.0903,0,0,0,-0.0675,-0.069,-0.0708,-0.0749,-0.0842,-0.1011,-0.1041,-0.1126,-0.1166,-0.1268,-0.1275,-0.1216,-0.1211,-0.1042,-0.092,-0.0702,0,0,0,-0.0627,-0.0685,-0.0707,-0.079,-0.0839,-0.0946,-0.1041,-0.1146,-0.1226,-0.1271,-0.1214,-0.121,-0.1045,-0.0929,-0.0713,-0.0543,-0.0476,0,0,-0.0683,-0.069,-0.0745,-0.077,-0.0839,-0.0917,-0.0929,-0.1075,-0.1144,-0.1158,-0.1159,-0.1031,-0.0921,-0.0704,-0.0282,-0.0222,0,0,0,-0.0753,-0.0769,-0.0802,-0.0845,-0.0912,-0.0849,-0.0997,-0.0984,-0.0975,-0.1165,-0.099,-0.0924,-0.0794,-0.0716,-0.0667,-0.0795,-0.1189,-0.1189,-0.1189,-0.0735,-0.0778,-0.0792,-0.081,-0.0828,-0.0819,-0.0754,-0.0732,-0.0881,-0.0792,-0.0746,-0.0411,-0.0326,-0.0287,-0.0421,-0.074,-0.074,-0.0739,-0.0739,-0.0734,-0.0715,-0.0694,-0.0716,-0.0621,-0.0598,-0.0488,-0.0503,-0.0326,-0.0504,-0.0388,-0.049,-0.0223,-0.0386,-0.0726,-0.0728,-0.073,-0.0731,-0.0732,-0.0689,-0.0658,-0.0665,-0.0571,-0.044,-0.0391,-0.0123,-0.0114,-0.0113,0.0015,0.0111,0.0108,-0.0054,0.0066,0.0067,0.0069,0.007,0.0072,0.0072,-0.0597,-0.0588,-0.0453,-0.0392,-0.0261,-0.008,0.0108,0.0263,0.0417,0.0396,0.0396,0.0083,-0.0164,-0.0218,0.0097,0.0092,0.0089,0.0087,0.0085,-0.0495,-0.0453,-0.0247,-0.0103,0.0186,0.0431,0.055,0.0853,0.0984,0.1106,0.0698,0.0611,0.0591,0.055,0.0515,0.1002,0.1002,0.1002,0.1002,-0.0351,-0.0343,0.0028,0.0304,0.0592,0.0716,0.115,0.1322,0.1254,0.1166,0.0999,0.0789,0.0758,0.0729,0.0685,0.0644,0.1152,0.1151,0.1151,-0.0168,-0.0081,0.0217,0.044,0.0765,0.1023,0.1363,0.161,0.1432,0.1132,0.0802,0.0796,0.0441,0.0402,0.03,0.0248,0.0158,0,0]}],[{"header":{"parameterUnit":"m.s-1","parameterCategory":2,"la1":30.2992,"la2":30.254,"lo1":-89.0895,"lo2":-89.0443,"dy":0.0025,"dx":0.0025,"nx":19,"ny":19,"refTime":"2026-03-24T03:00:00:Z","depth":"2","parameterNumber":2,"parameterNumberName":"U-component_of_CURRENTS"},"data":[0,0,0,0.2222,0.2223,0.2303,0.2303,0.2601,0.2604,0,0,0,0,0,0,0,0,0,0,0,0.2196,0.2196,0.2222,0.2223,0.2303,0.2304,0.2601,0.2604,0,0,0,0,0,0,0,0,0,0,0,0.2196,0.2196,0.2196,0.2223,0.2303,0.2304,0.26,0.2498,0,0,0,0,0,0,0,0,0,0,0.2399,0.2363,0.2196,0.2196,0.2223,0.2302,0.2304,0.2492,0.2505,0.2611,0,0.26,0,0.2601,0.2626,0.2627,0,0,0,0.2253,0.2352,0.2341,0.2196,0.2223,0.2302,0.2275,0.2498,0.2513,0.263,0.2604,0.2613,0.2605,0.2628,0.263,0.3066,0.3068,0,0,0.2248,0.2256,0.233,0.2349,0.2219,0.2272,0.2277,0.2505,0.2535,0.2605,0.262,0.261,0.263,0.2633,0.3063,0.3066,0,0,0,0.2215,0.2254,0.2235,0.2339,0.2333,0.2274,0.228,0.2525,0.2508,0.2622,0.2614,0.2632,0.2636,0.3061,0.3064,0.3158,0,0,0,0.2214,0.2231,0.2232,0.2245,0.2326,0.241,0.2295,0.2492,0.2517,0.2612,0.2632,0.2639,0.3058,0.3063,0.315,0.3078,0,0,0,0.2197,0.2231,0.2223,0.2243,0.226,0.2404,0.2403,0.2497,0.2512,0.2627,0.264,0.3056,0.3062,0.3143,0.3071,0.3131,0,0,0,0.2228,0.2225,0.2223,0.226,0.2258,0.2407,0.2401,0.2545,0.2652,0.2634,0.3059,0.3064,0.314,0.3066,0.3126,0.2858,0.2859,0,0,0.2236,0.2227,0.2254,0.2253,0.2388,0.2399,0.2638,0.2756,0.278,0.2996,0.3005,0.3153,0.307,0.313,0.3183,0.3172,0,0,0,0.2268,0.231,0.2347,0.243,0.2508,0.2657,0.2803,0.2893,0.3083,0.2859,0.3241,0.3185,0.3219,0.3053,0.3048,0.3091,0.309,0.3089,0.3089,0.2309,0.2374,0.251,0.2636,0.2746,0.2907,0.3006,0.3168,0.3249,0.3368,0.3333,0.3522,0.3355,0.3345,0.3474,0.3474,0.3475,0.3475,0.3475,0.2445,0.2558,0.2691,0.2841,0.2971,0.3157,0.3331,0.3363,0.3532,0.3552,0.3585,0.3246,0.3343,0.3485,0.3483,0.3482,0.3481,0.348,0.3479,0.2541,0.2613,0.2707,0.2917,0.3099,0.3255,0.3356,0.3449,0.3558,0.3567,0.3428,0.3422,0.3472,0.3657,0.3657,0.3657,0.3657,0.3657,0.3658,0.2585,0.2697,0.2771,0.2975,0.3067,0.3207,0.3353,0.3394,0.343,0.3441,0.344,0.3581,0.3575,0.3484,0.3658,0.3658,0.3658,0.3658,0.3658,0.2742,0.2622,0.2759,0.2829,0.3001,0.2957,0.3191,0.314,0.3244,0.3167,0.3367,0.3374,0.3286,0.3288,0.3192,0.328,0.328,0.328,0.328,0.2708,0.2704,0.2726,0.2765,0.2828,0.2843,0.2657,0.2653,0.2791,0.2855,0.2874,0.279,0.2813,0.2695,0.2711,0.2601,0.2536,0.2535,0.2534,0.2751,0.2734,0.2722,0.2682,0.2712,0.2599,0.2241,0.2039,0.2202,0.2509,0.2791,0.3221,0.3144,0.3163,0.3018,0.3029,0.2868,0,0]},{"header":{"parameterUnit":"m.s-1","parameterCategory":2,"la1":30.2992,"la2":30.254,"lo1":-89.0895,"lo2":-89.0443,"dy":0.0025,"dx":0.0025,"nx":19,"ny":19,"refTime":"2026-03-24T03:00:00:Z","depth":"2","parameterNumber":3,"parameterNumberName":"V-component_of_CURRENTS"},"data":[0,0,0,0.0108,0.0108,0.0109,0.0109,0.0219,0.0221,0,0,0,0,0,0,0,0,0,0,0,0.0119,0.0119,0.0108,0.0108,0.0109,0.0109,0.0219,0.0221,0,0,0,0,0,0,0,0,0,0,0,0.0118,0.0119,0.0119,0.0108,0.0109,0.0109,0.0219,0.0191,0,0,0,0,0,0,0,0,0,0,0.0176,0.0155,0.0119,0.0119,0.0108,0.0109,0.0109,0.0189,0.0193,0.025,0,0.0256,0,0.0239,0.023,0.0231,0,0,0,0.0109,0.0151,0.0166,0.0119,0.0108,0.0109,0.0109,0.019,0.0195,0.0256,0.0257,0.026,0.0241,0.0231,0.0232,0.0468,0.047,0,0,0.0109,0.0107,0.0162,0.0169,0.0119,0.0109,0.0109,0.0192,0.0197,0.0257,0.0262,0.0243,0.0232,0.0233,0.0467,0.0468,0,0,0,0.0108,0.0107,0.0117,0.0166,0.0156,0.0109,0.0109,0.0193,0.02,0.0263,0.0244,0.0233,0.0235,0.0465,0.0467,0.0595,0,0,0,0.0108,0.0106,0.0117,0.0114,0.0154,0.0155,0.0108,0.0194,0.0202,0.0244,0.0233,0.0236,0.0463,0.0466,0.0588,0.067,0,0,0,0.0116,0.0106,0.0113,0.0114,0.0114,0.0153,0.0164,0.0195,0.0192,0.0231,0.0237,0.0462,0.0466,0.0582,0.0659,0.0642,0,0,0,0.0106,0.0146,0.0113,0.0173,0.0114,0.0214,0.0162,0.0199,0.0234,0.0234,0.0464,0.0467,0.058,0.0652,0.0637,0.0586,0.0606,0,0,0.0159,0.0152,0.0197,0.0169,0.0292,0.0213,0.0379,0.0366,0.0316,0.044,0.0444,0.059,0.0658,0.0641,0.079,0.0804,0,0,0,0.0218,0.0261,0.0291,0.0353,0.0392,0.0494,0.0469,0.0478,0.0529,0.0353,0.0627,0.0667,0.065,0.061,0.0623,0.0484,0.0483,0.0483,0.0483,0.0286,0.0343,0.0478,0.0571,0.0623,0.0693,0.0758,0.0778,0.0692,0.0723,0.0797,0.0916,0.088,0.0887,0.0812,0.0812,0.0813,0.0813,0.0813,0.048,0.06,0.0668,0.0804,0.0893,0.0991,0.1077,0.1024,0.1067,0.0981,0.0955,0.0783,0.0907,0.0824,0.0822,0.0821,0.082,0.0819,0.0818,0.0579,0.0662,0.0739,0.0969,0.1095,0.116,0.1279,0.1279,0.1183,0.1204,0.1029,0.1025,0.0941,0.1123,0.1123,0.1123,0.1124,0.1124,0.1124,0.0669,0.0777,0.0918,0.1136,0.1191,0.1303,0.1373,0.1357,0.1267,0.1191,0.1188,0.1018,0.1008,0.0958,0.1129,0.1128,0.1128,0.1127,0.1127,0.0863,0.0856,0.1046,0.114,0.1342,0.1452,0.1495,0.1425,0.1365,0.1296,0.1155,0.1153,0.1088,0.1076,0.1029,0.1207,0.1207,0.1207,0.1207,0.0932,0.0983,0.1118,0.1243,0.1419,0.151,0.1527,0.1444,0.1298,0.1189,0.119,0.1129,0.1126,0.1058,0.1047,0.0995,0.1166,0.1166,0.1166,0.1082,0.1052,0.1136,0.1244,0.1411,0.1532,0.1531,0.1412,0.1188,0.1166,0.12,0.1201,0.1109,0.1105,0.0992,0.0978,0.0892,0,0]}],[{"header":{"parameterUnit":"m.s-1","parameterCategory":2,"la1":30.2992,"la2":30.254,"lo1":-89.0895,"lo2":-89.0443,"dy":0.0025,"dx":0.0025,"nx":19,"ny":19,"refTime":"2026-03-24T03:00:00:Z","depth":"4","parameterNumber":2,"parameterNumberName":"U-component_of_CURRENTS"},"data":[0,0,0,0.0939,0.0939,0.0962,0.0963,0.1061,0.1062,0,0,0,0,0,0,0,0,0,0,0,0.0941,0.0941,0.0939,0.0939,0.0962,0.0963,0.1061,0.1062,0,0,0,0,0,0,0,0,0,0,0,0.0942,0.0941,0.0941,0.0939,0.0962,0.0963,0.1061,0.1032,0,0,0,0,0,0,0,0,0,0,0.1002,0.0977,0.0941,0.0941,0.0939,0.0962,0.0963,0.103,0.1033,0.1064,0,0.1058,0,0.105,0.1068,0.1069,0,0,0,0.0961,0.0973,0.0984,0.0941,0.0939,0.0962,0.0958,0.1031,0.1036,0.1069,0.1059,0.1062,0.1051,0.1069,0.1069,0.1281,0.1283,0,0,0.0959,0.0947,0.098,0.0986,0.0934,0.0957,0.0958,0.1033,0.1033,0.106,0.1064,0.1053,0.107,0.107,0.128,0.1282,0,0,0,0.0941,0.0946,0.0954,0.0983,0.0974,0.0957,0.0959,0.103,0.1033,0.1065,0.1054,0.107,0.1071,0.1278,0.128,0.1401,0,0,0,0.0941,0.0933,0.0953,0.0946,0.0972,0.0989,0.0953,0.1028,0.1036,0.1054,0.107,0.1072,0.1276,0.1279,0.1394,0.1445,0,0,0,0.0942,0.0933,0.0934,0.0945,0.0944,0.0987,0.0996,0.103,0.1029,0.1069,0.1072,0.1275,0.1278,0.1388,0.1434,0.1481,0,0,0,0.0933,0.0877,0.0933,0.0892,0.0944,0.0975,0.0995,0.1016,0.1046,0.1071,0.1276,0.128,0.1386,0.1428,0.1475,0.1207,0,0,0,0.0845,0.0866,0.0847,0.0896,0.0921,0.0974,0.1056,0.1094,0.1131,0.1255,0.126,0.1396,0.1434,0.148,0.1438,0,0,0,0,0.0809,0.0796,0.0809,0.0851,0.0911,0.1067,0.1094,0.1172,0.1337,0.1163,0.1442,0.1462,0.1486,0.1315,0.1299,0.1298,0.1298,0.1298,0.1297,0.0718,0.077,0.0783,0.088,0.0963,0.1124,0.1257,0.1397,0.1386,0.1519,0.1595,0.176,0.1591,0.1633,0.1633,0.1634,0.1635,0.1635,0.1635,0.0683,0.0722,0.0842,0.0889,0.1104,0.124,0.1501,0.1571,0.1789,0.1772,0.1789,0.1499,0.1648,0.1646,0.1644,0.1642,0.1641,0.1641,0.164,0.0656,0.0694,0.076,0.0949,0.1133,0.1352,0.1584,0.1773,0.1914,0.1986,0.1767,0.1842,0.179,0.1986,0.1987,0.1987,0.1988,0.1988,0.1988,0.0683,0.0733,0.0843,0.0994,0.1112,0.1335,0.1649,0.1793,0.1954,0.1889,0.2019,0.1878,0.1866,0.1811,0.1996,0.1995,0.1994,0.1993,0.1992,0.0661,0.0771,0.0888,0.0995,0.1185,0.1273,0.1556,0.1736,0.1841,0.1841,0.1817,0.1824,0.1744,0.1736,0.1672,0.1823,0.182,0.1817,0,0.0708,0.0751,0.0971,0.107,0.1162,0.1248,0.1369,0.1513,0.1657,0.1596,0.1835,0.1803,0.1806,0.1708,0.1697,0.1617,0,0,0,0.0767,0.0846,0.0947,0.1056,0.1121,0.1207,0.138,0.1404,0.1603,0.1645,0.1747,0.1765,0.188,0.2019,0.1912,0.1898,0.1803,0,0]},{"header":{"parameterUnit":"m.s-1","parameterCategory":2,"la1":30.2992,"la2":30.254,"lo1":-89.0895,"lo2":-89.0443,"dy":0.0025,"dx":0.0025,"nx":19,"ny":19,"refTime":"2026-03-24T03:00:00:Z","depth":"4","parameterNumber":3,"parameterNumberName":"V-component_of_CURRENTS"},"data":[0,0,0,0.0356,0.0358,0.0455,0.0456,0.0525,0.0525,0,0,0,0,0,0,0,0,0,0,0,0.0322,0.0323,0.0356,0.0358,0.0455,0.0456,0.0525,0.0525,0,0,0,0,0,0,0,0,0,0,0,0.0322,0.0322,0.0323,0.0359,0.0455,0.0456,0.0525,0.0467,0,0,0,0,0,0,0,0,0,0,0.038,0.0367,0.0322,0.0323,0.0359,0.0455,0.0456,0.0465,0.047,0.0462,0,0.0475,0,0.0498,0.0528,0.0528,0,0,0,0.0366,0.0363,0.0374,0.0323,0.036,0.0455,0.0414,0.0468,0.0475,0.047,0.0477,0.048,0.0499,0.0528,0.0528,0.0513,0.0513,0,0,0.0361,0.0354,0.037,0.0378,0.0381,0.0411,0.0417,0.0473,0.0485,0.0477,0.0482,0.05,0.0528,0.0529,0.0514,0.0513,0,0,0,0.034,0.0351,0.0363,0.0374,0.0394,0.0413,0.042,0.0483,0.0483,0.0483,0.0501,0.0528,0.0529,0.0514,0.0513,0.0591,0,0,0,0.0337,0.0338,0.036,0.036,0.0393,0.0451,0.0429,0.0479,0.0486,0.05,0.0528,0.0529,0.0515,0.0514,0.059,0.0636,0,0,0,0.0318,0.0337,0.0343,0.0359,0.0396,0.045,0.0455,0.0482,0.0496,0.0528,0.0529,0.0515,0.0514,0.0589,0.0634,0.0588,0,0,0,0.0315,0.0374,0.0343,0.0415,0.0395,0.046,0.0456,0.052,0.0553,0.0529,0.0515,0.0514,0.0589,0.0632,0.0588,0.0603,0,0,0,0.0396,0.0384,0.0426,0.0401,0.0472,0.0447,0.0496,0.0539,0.0522,0.0495,0.0495,0.0591,0.0634,0.0588,0.0537,0,0,0,0,0.0457,0.047,0.0492,0.0519,0.0544,0.0549,0.056,0.0547,0.0552,0.0533,0.0546,0.057,0.0539,0.0543,0.0508,0.0508,0.0508,0.0509,0.0509,0.0503,0.0522,0.0573,0.0583,0.0621,0.0613,0.0613,0.0577,0.057,0.0568,0.06,0.0577,0.0583,0.0553,0.0554,0.0554,0.0554,0.0555,0.0555,0.0578,0.0597,0.0606,0.068,0.0668,0.0703,0.067,0.0655,0.0613,0.0615,0.058,0.0586,0.0561,0.056,0.0559,0.0558,0.0558,0.0557,0.0557,0.0576,0.0593,0.064,0.0711,0.0743,0.0758,0.0782,0.0753,0.0694,0.0678,0.0624,0.06,0.0628,0.065,0.065,0.065,0.065,0.065,0.065,0.0572,0.0609,0.0673,0.0732,0.078,0.0841,0.085,0.0835,0.0769,0.0703,0.0696,0.0607,0.0604,0.063,0.065,0.065,0.065,0.065,0.065,0.0588,0.0615,0.0702,0.0761,0.0845,0.0869,0.0901,0.0855,0.0791,0.0708,0.0675,0.0673,0.0634,0.063,0.0655,0.0684,0.0684,0.0685,0,0.0581,0.0603,0.0726,0.081,0.087,0.0894,0.0892,0.0855,0.0748,0.0739,0.0744,0.0709,0.0707,0.0666,0.0662,0.0693,0,0,0,0.0577,0.0632,0.0699,0.0806,0.0887,0.0875,0.0886,0.0861,0.0771,0.0735,0.0691,0.0689,0.0708,0.065,0.0586,0.0582,0.0619,0,0]}]]